Regional Weather Roundup
Issued by NWS Binghamton, NY

Home | Current Version | Previous Version | Text Only | Print | Product List | Glossary On
Versions: 1 2 3 4 5 6 7 8 9 10 11 12 13 14 15 16 17 18 19 20 21 22 23 24 25 26 27 28 29 30 31 32 33 34 35 36 37 38 39 40 41 42 43 44 45 46 47 48 49 50
000
ASUS41 KBGM 141210
RWRBGM
RWRBGM
BINGHAMTON REGIONAL WEATHER ROUNDUP
NATIONAL WEATHER SERVICE BINGHAMTON NY
800 AM EDT MON JUL 14 2014

Note: "fair" indicates few or no clouds below 12,000 feet with no
significant weather and/or obstructions to visibility.

* = Station(s) that does not report precipitation, such as rain,
snow, etc, also no thunder or fog.

!NYZ009-015>018-022>025-036-037-044>046-055>057-062-141300
...CENTRAL NEW YORK...

CITY           SKY/WX    TMP DP  RH WIND       PRES   REMARKS
BINGHAMTON     MOSUNNY   68  66  94 SW7       29.95R
CORTLAND       FOG       64  64 100 CALM      29.94S VSB<1/4
DANSVILLE      PTSUNNY   67  64  90 S5        29.92S
ELMIRA         FOG       66  66 100 CALM      29.92S VSB<1/4
ITHACA         SUNNY     72  68  87 S5        29.94S
MONTICELLO     NOT AVBL
NORWICH        MOSUNNY   70  66  88 S5        29.94S
ONEONTA        SUNNY     68  64  88 W6        29.95F
PENN YAN       SUNNY     69  66  90 SW6       29.92S
ROME           PTSUNNY   71  68  90 CALM      29.90S
SIDNEY         MOSUNNY   73  73 100 CALM      29.94S
SYRACUSE       CLOUDY    72  66  81 W3        29.89S
$$

!PAZ038>040-043-044-047-048-072-141300
...NORTHEAST PENNSYLVANIA...

CITY           SKY/WX    TMP DP  RH WIND       PRES   REMARKS
HAZLETON       CLOUDY    70  68  94 CALM      30.00R FOG
SCRANTON       MOSUNNY   72  67  84 CALM      29.94S
TOWANDA*       CLOUDY    66  66 100 CALM      29.94R VSB 1/2
$$
&&
KEY
WCI = WIND CHILL INDEX
VSB = VISIBILITY
HX  = HEAT INDEX
$$


USA.gov is the U.S. government's official web portal to all federal, state and local government web resources and services.